Вернуться в каталог

USA 394

АктивенВоенныеVLEO
NORAD 60177·PAYLOAD·🇺🇸 United States

Запущен Jun 29, 2024 с Vandenberg Space Force Base

Loading…

Ближайшие Пролёты (ближайшие 24 часа)

TLE

УстаревшееSource: Mike McCants

Эпоха: Aug 24, 2026, 00:47 UTC

1 60177U 24121V   26236.03265889 0.00000000  00000-0  00000-0 0    04
2 60177  70.0170 216.6495 0003000 304.6664  55.3335 14.96713217    08

Отслеживайте USA 394 в реальном времени с AllMySat

Download on the App Store